sat.trackr.live / text

‹ back to catalog

STARLINK-33833

NORAD 63498 · 2025-071F

PAYLOAD ACTIVE UNKNOWN

§ Identity

Operator
Country
US
Launch date
2025-04-07
Launch site
AFWTR
Launch vehicle
Mass (kg)
RCS (m²)

Purposes: comms

External: N2YO · Heavens-Above · Gunter

§ Orbital elements

Epoch: 2026-05-25T03:26:35.266272Z

Period
94.11 min
Inclination
53.1579°
Eccentricity
0.0001179
Mean motion
15.30198674 rev/d
Perigee alt
474.4 km
Apogee alt
476.0 km
Semi-major
6,853.4 km
B*
5.4611e-4
RAAN
144.9196°
Arg perigee
104.1110°
Mean anomaly
256.0022°
Rev number
6,447

§ Raw data

STARLINK-338331 63498U 25071F   26145.14346373  .00015849  00000+0  54611-3 0  99902 63498  53.1579 144.9196 0001179 104.1110 256.0022 15.30198674 64474

JSON: /api/v1/satellites/63498 · /tle

For live sub-satellite position, see the globe view (requires WebGL).

§ Visibility from observer

Set your observer location to see the next 7 days of passes ≥ 10°. The values pass through the URL so the page stays shareable.

No JS? Fill the form by hand. The geolocation button needs JavaScript.